[[{"header":{"parameterUnit":"m.s-1","parameterCategory":1,"la1":30.2991,"la2":30.254,"lo1":-89.0895,"lo2":-89.0444,"dy":0.0017,"dx":0.0017,"nx":28,"ny":28,"refTime":"2023-10-01T21:00:00:Z","depth":0,"parameterNumber":2,"parameterNumberName":"U-component_of_WINDS"},"data":[0,0,0,0,0,0,0,0,0,0,0,0,0,0,0,0,0,0,0,0,0,0,0,0,0,0,0,0,0,0,0,0,0,0,0,0,0,0,0,0,0,0,0,0,0,0,0,0,0,0,0,0,0,0,0,0,0,0,-6.1204,-6.1205,0,-6.125,-6.125,-6.1251,-6.1032,-6.1026,-6.1019,-6.1013,-6.1063,-6.107,-6.1078,0,0,0,0,0,0,0,0,0,0,0,0,0,-6.093,-6.0936,-6.1204,-6.1205,-6.1205,-6.1249,-6.125,-6.1251,-6.1033,-6.1025,-6.1018,-6.101,-6.1061,-6.107,-6.1078,0,0,0,0,0,0,0,0,0,0,0,0,0,-6.102,-6.0938,-6.1204,-6.1102,-6.1093,-6.1249,-6.125,-6.1251,-6.1035,-6.1025,-6.1016,-6.1007,-6.1058,-6.1069,-6.1079,-6.1337,0,0,-6.1113,-6.1117,0,0,0,0,0,0,0,0,-6.1015,-6.103,-6.1116,-6.1109,-6.11,-6.1125,-6.1172,-6.128,-6.1037,-6.1057,-6.1013,-6.1002,-6.1092,-6.1099,-6.1129,-6.134,-6.1342,-6.1114,-6.112,-6.1125,-6.1128,0,0,0,0,0,0,0,-6.1009,-6.1027,-6.1222,-6.1118,-6.1108,-6.1054,-6.1056,-6.1191,-6.1128,-6.1055,-6.1039,-6.1047,-6.1086,-6.1119,-6.1129,-6.1342,-6.1113,-6.1123,-6.113,-6.1134,-6.1764,-6.1774,0,0,0,0,0,0,-6.1016,-6.1023,-6.122,-6.1223,-6.1033,-6.1067,-6.1069,-6.1127,-6.1125,-6.1116,-6.1055,-6.1037,-6.1105,-6.1116,-6.113,-6.1429,-6.1125,-6.1135,-6.1141,-6.1754,-6.1767,-6.1778,0,0,0,0,0,0,-6.1011,-6.1036,-6.1219,-6.1119,-6.1138,-6.1082,-6.1148,-6.1133,-6.1166,-6.1126,-6.1113,-6.1101,-6.1098,-6.1114,-6.1286,-6.1428,-6.114,-6.115,-6.1742,-6.1758,-6.1772,-6.2032,0,0,0,0,0,0,-6.1004,-6.1035,-6.1132,-6.1123,-6.1144,-6.1375,-6.1157,-6.114,-6.1185,-6.1161,-6.1165,-6.1157,-6.1092,-6.1271,-6.1297,-6.1438,-6.1158,-6.1729,-6.1749,-6.1767,-6.2011,-6.2055,-6.2092,0,0,0,0,0,-6.0995,-6.1205,-6.1139,-6.1164,-6.1264,-6.1384,-6.1396,-6.1316,-6.1197,-6.1294,-6.1268,-6.1157,-6.1409,-6.1291,-6.1318,-6.1464,-6.172,-6.1744,-6.1766,-6.1993,-6.2046,-6.2091,0,0,0,0,0,0,-6.1234,-6.1202,-6.1128,-6.1341,-6.1367,-6.1347,-6.1466,-6.1375,-6.1436,-6.1412,-6.131,-6.1313,-6.1503,-6.1501,-6.137,-6.1712,-6.1544,-6.1573,-6.1707,-6.1757,-6.1797,-6.1793,-6.1167,0,0,0,0,0,-6.1311,-6.141,-6.1377,-6.1568,-6.1585,-6.1525,-6.1573,-6.1509,-6.1532,-6.1542,-6.1529,-6.1556,-6.1641,-6.1699,-6.1775,-6.201,-6.2007,-6.2124,-6.2164,-6.2198,-6.2224,-6.2346,-6.2397,-6.1853,-6.1853,-6.1853,0,0,-6.1473,-6.1467,-6.1536,-6.1616,-6.1628,-6.1733,-6.1535,-6.1655,-6.1731,-6.1561,-6.1721,-6.1713,-6.1737,-6.1941,-6.203,-6.1945,-6.2374,-6.2227,-6.2254,-6.2262,-6.2375,-6.2427,-6.2473,-6.1869,-6.1866,-6.1864,0,0,-6.1819,-6.1826,-6.1984,-6.2,-6.2021,-6.1979,-6.2018,-6.2012,-6.1999,-6.2158,-6.2032,-6.2122,-6.2271,-6.2292,-6.2323,-6.2677,-6.2577,-6.2705,-6.2917,-6.3038,-6.308,-6.3118,-6.3243,-6.3289,-6.2732,-6.2732,-6.2733,0,-6.2016,-6.2168,-6.2078,-6.2205,-6.2244,-6.2093,-6.2253,-6.2273,-6.2319,-6.2349,-6.2253,-6.2435,-6.244,-6.2647,-6.2733,-6.2763,-6.2803,-6.2703,-6.3081,-6.3118,-6.3152,-6.3269,-6.3317,-6.2748,-6.2746,-6.2744,-6.2743,0,-6.2409,-6.2517,-6.2643,-6.2688,-6.2741,-6.2885,-6.2816,-6.2881,-6.2813,-6.2781,-6.2945,-6.2947,-6.3019,-6.3064,-6.2999,-6.3261,-6.3207,-6.3099,-6.2926,-6.322,-6.3329,-6.3374,-6.277,-6.2764,-6.276,-6.2756,0,0,-6.2907,-6.29,-6.2948,-6.2966,-6.2977,-6.3059,-6.3196,-6.3265,-6.3322,-6.3359,-6.347,-6.3599,-6.3497,-6.3533,-6.3469,-6.3575,-6.3853,-6.3452,-6.3451,-6.3525,-6.414,-6.4221,-6.4275,-6.3787,-6.3795,-6.3802,-6.4138,0,-6.3244,-6.3476,-6.3398,-6.3633,-6.3731,-6.3589,-6.3707,-6.3728,-6.3702,-6.3782,-6.3753,-6.3845,-6.3705,-6.3725,-6.3824,-6.3798,-6.3975,-6.3773,-6.3889,-6.3895,-6.3886,-6.4332,-6.4418,-6.4735,-6.418,-6.4187,-6.4192,0,-6.3669,-6.372,-6.3966,-6.3959,-6.3997,-6.4105,-6.4161,-6.4239,-6.426,-6.4233,-6.4273,-6.4186,-6.4319,-6.4149,-6.4331,-6.4195,-6.4238,-6.4233,-6.4243,-6.425,-6.406,-6.4349,-6.4834,-6.4881,-6.4259,-6.4253,-6.4249,0,-6.4005,-6.4136,-6.4299,-6.4319,-6.4316,-6.4395,-6.4398,-6.4408,-6.4455,-6.4505,-6.4534,-6.46,-6.4637,-6.469,-6.4624,-6.4506,-6.4816,-6.464,-6.4797,-6.4799,-6.4868,-6.4864,-6.5365,-6.4899,-6.4899,-6.4898,-6.4897,0,-6.4389,-6.4544,-6.4449,-6.455,-6.4719,-6.4628,-6.4798,-6.4785,-6.4796,-6.4891,-6.4773,-6.4865,-6.4772,-6.4856,-6.4806,-6.4963,-6.4981,-6.4964,-6.4948,-6.4973,-6.4975,-6.4999,-6.4974,-6.491,-6.4907,-6.4905,-6.4903,0,-6.4792,-6.4735,-6.4903,-6.4886,-6.4885,-6.5011,-6.4996,-6.5088,-6.5054,-6.5176,-6.5199,-6.5146,-6.5238,-6.5177,-6.5271,-6.5237,-6.5443,-6.5398,-6.5436,-6.5423,-6.5583,-6.5568,-6.6115,-6.6182,-6.5676,-6.5681,-6.5685,0,-6.504,-6.5155,-6.515,-6.5205,-6.5215,-6.5305,-6.5351,-6.5266,-6.532,-6.5351,-6.5439,-6.5521,-6.5581,-6.5736,-6.5706,-6.5777,-6.5731,-6.5918,-6.5741,-6.5762,-6.5732,-6.5725,-6.5735,-6.5954,-6.596,-6.5964,-6.5968,0,-6.5485,-6.545,-6.5521,-6.5583,-6.5641,-6.5686,-6.5721,-6.5773,-6.5687,-6.5754,-6.5845,-6.5893,-6.5987,-6.607,-6.6128,-6.6131,-6.6037,-6.6025,-6.6064,-6.609,-6.6107,-6.6098,-6.5531,-6.6012,-6.6008,-6.6004,-6.6002,-6.6,-6.5816,-6.5911,-6.5922,-6.6005,-6.6022,-6.6057,-6.6142,-6.6118,-6.6193,-6.6262,-6.6208,-6.6318,-6.6334,-6.6403,-6.6418,-6.6503,-6.6426,-6.6485,-6.6499,-6.6514,-6.6536,-6.6095,-6.6513,-6.6512,-6.6511,-6.651,-6.6509,0,-6.6253,-6.6252,-6.633,-6.6381,-6.6447,-6.6351,-6.6384,-6.6445,-6.6543,-6.6565,-6.6627,-6.6733,-6.6812,-6.6789,-6.686,-6.6932,-6.689,-6.6953,-6.6946,-6.6948,-6.6601,-6.6558,-6.6986,-6.6986,-6.6986,-6.6986,-6.6985,-6.6985,-6.6487,-6.6643,-6.6611,-6.6774,-6.6772,-6.6877,-6.6905,-6.6937,-6.6954,-6.7076,-6.7141,-6.7125,-6.7129,-6.7199,-6.7268,-6.7259,-6.729,-6.7369,-6.7344,-6.702,-6.6973,-6.6928,-6.6887,-6.7377,-6.7377,-6.7684,-6.7687,-6.7689]},{"header":{"parameterUnit":"m.s-1","parameterCategory":1,"la1":30.2991,"la2":30.254,"lo1":-89.0895,"lo2":-89.0444,"dy":0.0017,"dx":0.0017,"nx":28,"ny":28,"refTime":"2023-10-01T21:00:00:Z","depth":0,"parameterNumber":3,"parameterNumberName":"V-component_of_WINDS"},"data":[0,0,0,0,0,0,0,0,0,0,0,0,0,0,0,0,0,0,0,0,0,0,0,0,0,0,0,0,0,0,0,0,0,0,0,0,0,0,0,0,0,0,0,0,0,0,0,0,0,0,0,0,0,0,0,0,0,0,-1.4318,-1.4318,0,-1.4336,-1.4336,-1.4337,-1.4349,-1.435,-1.435,-1.435,-1.4367,-1.4368,-1.4368,0,0,0,0,0,0,0,0,0,0,0,0,0,-1.429,-1.429,-1.4317,-1.4318,-1.4318,-1.4336,-1.4336,-1.4337,-1.4349,-1.435,-1.435,-1.435,-1.4367,-1.4368,-1.4368,0,0,0,0,0,0,0,0,0,0,0,0,0,-1.4304,-1.429,-1.4317,-1.4327,-1.4328,-1.4336,-1.4336,-1.4337,-1.4349,-1.435,-1.435,-1.435,-1.4367,-1.4368,-1.4368,-1.4369,0,0,-1.437,-1.437,0,0,0,0,0,0,0,0,-1.4304,-1.4305,-1.4325,-1.4326,-1.4327,-1.4341,-1.4333,-1.4347,-1.4349,-1.4341,-1.435,-1.435,-1.4358,-1.436,-1.4363,-1.437,-1.437,-1.437,-1.437,-1.4371,-1.4371,0,0,0,0,0,0,0,-1.4303,-1.4305,-1.4325,-1.4325,-1.4326,-1.4329,-1.4331,-1.4336,-1.4349,-1.4342,-1.4343,-1.4345,-1.4359,-1.4362,-1.4363,-1.4371,-1.437,-1.437,-1.4371,-1.4371,-1.4377,-1.4377,0,0,0,0,0,0,-1.43,-1.4304,-1.4324,-1.4325,-1.4316,-1.4329,-1.4332,-1.4336,-1.4349,-1.4351,-1.4345,-1.4345,-1.4361,-1.4363,-1.4364,-1.4364,-1.4371,-1.4371,-1.4371,-1.4377,-1.4377,-1.4377,0,0,0,0,0,0,-1.43,-1.4302,-1.4324,-1.4315,-1.4318,-1.4329,-1.4334,-1.4336,-1.434,-1.4351,-1.4353,-1.4346,-1.4361,-1.4363,-1.4367,-1.4365,-1.4371,-1.4372,-1.4377,-1.4377,-1.4377,-1.4366,0,0,0,0,0,0,-1.4299,-1.4302,-1.4303,-1.4315,-1.4318,-1.4327,-1.4334,-1.4337,-1.4341,-1.4342,-1.4353,-1.4354,-1.4361,-1.4366,-1.4368,-1.4366,-1.4372,-1.4377,-1.4377,-1.4377,-1.4366,-1.4365,-1.4364,0,0,0,0,0,-1.4298,-1.4299,-1.4303,-1.4306,-1.432,-1.4327,-1.4329,-1.4338,-1.4341,-1.4341,-1.4348,-1.4354,-1.4365,-1.4367,-1.4368,-1.4367,-1.4378,-1.4377,-1.4377,-1.4367,-1.4365,-1.4364,0,0,0,0,0,0,-1.4287,-1.4301,-1.4305,-1.4311,-1.4318,-1.4329,-1.4331,-1.4336,-1.4342,-1.4343,-1.4353,-1.4355,-1.4357,-1.4363,-1.4364,-1.4367,-1.4372,-1.4372,-1.4364,-1.4362,-1.4361,-1.436,-1.4373,0,0,0,0,0,-1.4285,-1.4291,-1.4302,-1.4306,-1.4309,-1.4319,-1.4323,-1.4329,-1.4336,-1.4339,-1.4346,-1.4352,-1.4357,-1.436,-1.4365,-1.4367,-1.4369,-1.4366,-1.4365,-1.4364,-1.4364,-1.4364,-1.4363,-1.4375,-1.4375,-1.4375,0,0,-1.4282,-1.429,-1.4293,-1.4304,-1.431,-1.4314,-1.4322,-1.4326,-1.4329,-1.4339,-1.4344,-1.4349,-1.4356,-1.4359,-1.436,-1.4363,-1.4361,-1.4364,-1.4363,-1.4363,-1.4363,-1.4362,-1.4361,-1.4375,-1.4375,-1.4375,0,0,-1.4277,-1.4285,-1.4288,-1.4293,-1.4302,-1.4309,-1.4309,-1.432,-1.4323,-1.4328,-1.4335,-1.4338,-1.4346,-1.4351,-1.4354,-1.4349,-1.4355,-1.4351,-1.4345,-1.4344,-1.4343,-1.4343,-1.434,-1.4339,-1.435,-1.435,-1.435,0,-1.4272,-1.4279,-1.4289,-1.4292,-1.4296,-1.4305,-1.4308,-1.4312,-1.4322,-1.4324,-1.4327,-1.4337,-1.4343,-1.4346,-1.4344,-1.4347,-1.4347,-1.435,-1.4343,-1.4342,-1.4341,-1.4339,-1.4338,-1.435,-1.435,-1.435,-1.435,0,-1.4271,-1.4276,-1.4277,-1.4287,-1.429,-1.4294,-1.4302,-1.4305,-1.431,-1.4315,-1.4318,-1.4325,-1.4331,-1.4332,-1.4338,-1.4336,-1.4337,-1.4341,-1.4346,-1.434,-1.4337,-1.4336,-1.4349,-1.4349,-1.4349,-1.435,0,0,-1.4262,-1.4275,-1.4275,-1.4279,-1.4288,-1.4292,-1.4294,-1.43,-1.4301,-1.4307,-1.4309,-1.4315,-1.4318,-1.4322,-1.4328,-1.4327,-1.4321,-1.4332,-1.4332,-1.4329,-1.4318,-1.4314,-1.4313,-1.4325,-1.4324,-1.4324,-1.4317,0,-1.4259,-1.4265,-1.4272,-1.4275,-1.4278,-1.4286,-1.4288,-1.4293,-1.4298,-1.4301,-1.4306,-1.431,-1.4315,-1.4317,-1.4317,-1.4322,-1.4319,-1.4323,-1.4325,-1.4325,-1.4323,-1.4312,-1.4309,-1.4301,-1.4316,-1.4316,-1.4316,0,-1.4256,-1.4261,-1.4264,-1.4272,-1.4274,-1.4275,-1.428,-1.4283,-1.4289,-1.4292,-1.4295,-1.4301,-1.4303,-1.4307,-1.4309,-1.4311,-1.4312,-1.4315,-1.4315,-1.4315,-1.432,-1.4311,-1.4299,-1.4298,-1.4315,-1.4315,-1.4315,0,-1.4248,-1.4255,-1.4258,-1.4261,-1.427,-1.427,-1.4274,-1.428,-1.4282,-1.4286,-1.4287,-1.4291,-1.4294,-1.4296,-1.4302,-1.4305,-1.4302,-1.4308,-1.4304,-1.4304,-1.4304,-1.4303,-1.4291,-1.4305,-1.4305,-1.4305,-1.4305,0,-1.4243,-1.4245,-1.4254,-1.4256,-1.4257,-1.4264,-1.4265,-1.4269,-1.4274,-1.4275,-1.4282,-1.4283,-1.4291,-1.4292,-1.4297,-1.4297,-1.4298,-1.43,-1.4301,-1.4299,-1.4299,-1.43,-1.43,-1.4305,-1.4305,-1.4305,-1.4305,0,-1.4235,-1.4241,-1.4244,-1.4252,-1.4254,-1.4254,-1.426,-1.4261,-1.4266,-1.4267,-1.4268,-1.4275,-1.4277,-1.4283,-1.4287,-1.429,-1.4288,-1.429,-1.4286,-1.4287,-1.4283,-1.4283,-1.427,-1.4268,-1.4284,-1.4284,-1.4284,0,-1.4231,-1.4232,-1.424,-1.4241,-1.4244,-1.4247,-1.4249,-1.4256,-1.4258,-1.4263,-1.4263,-1.4265,-1.4268,-1.427,-1.4275,-1.4278,-1.428,-1.4275,-1.428,-1.4278,-1.4279,-1.4278,-1.4278,-1.4274,-1.4274,-1.4274,-1.4273,0,-1.4224,-1.4227,-1.423,-1.4233,-1.4236,-1.4239,-1.4242,-1.4243,-1.425,-1.4252,-1.4254,-1.4256,-1.4259,-1.4261,-1.4263,-1.4266,-1.427,-1.4272,-1.4271,-1.4269,-1.4266,-1.4266,-1.4282,-1.4272,-1.4272,-1.4272,-1.4272,-1.4272,-1.4218,-1.4218,-1.4223,-1.4226,-1.4229,-1.4231,-1.4232,-1.4236,-1.4238,-1.4241,-1.4245,-1.4246,-1.4249,-1.4254,-1.4256,-1.4256,-1.4259,-1.4258,-1.4257,-1.4257,-1.4256,-1.4266,-1.4257,-1.4257,-1.4257,-1.4257,-1.4257,0,-1.421,-1.4213,-1.4215,-1.422,-1.4221,-1.4225,-1.4228,-1.4229,-1.423,-1.4233,-1.4235,-1.4236,-1.4238,-1.4242,-1.4244,-1.4243,-1.4245,-1.4243,-1.4243,-1.4243,-1.4254,-1.4254,-1.4241,-1.4241,-1.4241,-1.4241,-1.4241,-1.4241,-1.4207,-1.4207,-1.421,-1.4212,-1.4214,-1.4216,-1.4217,-1.4219,-1.4221,-1.4222,-1.4224,-1.4226,-1.4229,-1.4231,-1.4232,-1.4233,-1.4233,-1.423,-1.4232,-1.4241,-1.4243,-1.4244,-1.4244,-1.423,-1.423,-1.4221,-1.4221,-1.4221]}]]